カタログに戻る

TRANSIT 10 DEB

運用中PO
NORAD 24705·DEBRIS·🇺🇸 United States

打ち上げ Dec 22, 1965 から Vandenberg Space Force Base

Loading…

次のパス (今後24時間)

TLE

最新Source: Space-Track

元期: Sep 14, 2026, 06:40 UTC

1 24705U 65109E   26257.27839949  .00001894  00000-0  97651-3 0  9995
2 24705  89.0792 189.2699 0076421 140.4747  11.5658 14.13242310513428

AllMySatでTRANSIT 10 DEBをリアルタイム追跡

Download on the App Store